Time,TemperatureF,DewpointF,PressureIn,WindDirection,WindDirectionDegrees,WindSpeedMPH,WindSpeedGustMPH,Humidity,HourlyPrecipIn,Conditions,Clouds,dailyrainin,SoftwareType,DateUTC
2013-06-27 00:09:00,86.0,66.3,29.89,SSE,164,2.7,5.8,52,0.00,,---,0.00,VWS V14.00,2013-06-27 05:09:00,
2013-06-27 00:19:00,86.2,65.4,29.89,South,177,4.5,4.9,50,0.00,,---,0.00,VWS V14.00,2013-06-27 05:19:00,
2013-06-27 00:29:00,86.0,65.2,29.89,SSE,168,0.0,4.9,50,0.00,,---,0.00,VWS V14.00,2013-06-27 05:29:00,
2013-06-27 00:39:00,86.4,65.0,29.89,SE,142,0.0,5.8,49,0.00,,---,0.00,VWS V14.00,2013-06-27 05:39:00,
2013-06-27 00:49:00,86.4,65.0,29.89,ESE,121,4.0,5.4,49,0.00,,---,0.00,VWS V14.00,2013-06-27 05:49:00,
2013-06-27 00:59:00,86.2,64.8,29.89,South,177,3.1,4.5,49,0.00,,---,0.00,VWS V14.00,2013-06-27 05:59:00,
2013-06-27 01:09:00,86.0,64.0,29.89,South,175,0.0,9.2,48,0.00,,---,0.00,VWS V14.00,2013-06-27 06:09:00,
2013-06-27 01:19:00,85.8,64.5,29.89,SE,128,3.6,4.9,49,0.00,,---,0.00,VWS V14.00,2013-06-27 06:19:00,
2013-06-27 01:29:00,85.6,64.3,29.89,SSE,159,0.0,4.0,49,0.00,,---,0.00,VWS V14.00,2013-06-27 06:29:00,
2013-06-27 01:39:00,85.3,64.0,29.89,SSW,213,0.0,4.0,49,0.00,,---,0.00,VWS V14.00,2013-06-27 06:39:00,
2013-06-27 01:49:00,85.1,64.4,29.89,SSE,159,0.0,4.0,50,0.00,,---,0.00,VWS V14.00,2013-06-27 06:49:00,
2013-06-27 01:59:00,84.9,64.8,29.89,SSE,158,0.0,5.4,51,0.00,,---,0.00,VWS V14.00,2013-06-27 06:59:00,
2013-06-27 02:09:00,84.7,64.6,29.89,SE,130,2.7,4.9,51,0.00,,---,0.00,VWS V14.00,2013-06-27 07:09:00,
2013-06-27 02:19:00,84.6,64.5,29.89,SE,132,0.0,4.0,51,0.00,,---,0.00,VWS V14.00,2013-06-27 07:19:00,
2013-06-27 02:29:00,84.4,64.8,29.89,SSE,151,0.0,4.0,52,0.00,,---,0.00,VWS V14.00,2013-06-27 07:29:00,
2013-06-27 02:39:00,84.2,64.7,29.89,SSW,206,3.1,5.4,52,0.00,,---,0.00,VWS V14.00,2013-06-27 07:39:00,
2013-06-27 02:49:00,83.8,64.9,29.89,SSW,195,2.7,6.9,53,0.00,,---,0.00,VWS V14.00,2013-06-27 07:49:00,
2013-06-27 02:59:00,83.7,64.7,29.89,SE,129,0.0,5.4,53,0.00,,---,0.00,VWS V14.00,2013-06-27 07:59:00,
2013-06-27 03:09:00,83.5,65.1,29.89,SW,221,0.0,4.0,54,0.00,,---,0.00,VWS V14.00,2013-06-27 08:09:00,
2013-06-27 03:19:00,83.3,65.5,29.89,SE,145,0.0,4.0,55,0.00,,---,0.00,VWS V14.00,2013-06-27 08:19:00,
2013-06-27 03:29:00,82.9,65.1,29.89,South,175,0.0,4.5,55,0.00,,---,0.00,VWS V14.00,2013-06-27 08:29:00,
2013-06-27 03:39:00,82.6,65.3,29.89,SW,222,0.0,6.3,56,0.00,,---,0.00,VWS V14.00,2013-06-27 08:39:00,
2013-06-27 03:49:00,82.4,65.1,29.89,SSE,164,0.0,3.6,56,0.00,,---,0.00,VWS V14.00,2013-06-27 08:49:00,
2013-06-27 03:59:00,82.2,65.5,29.89,SSE,150,3.1,4.0,57,0.00,,---,0.00,VWS V14.00,2013-06-27 08:59:00,
2013-06-27 04:09:00,82.0,65.8,29.89,SSE,166,0.0,4.0,58,0.00,,---,0.00,VWS V14.00,2013-06-27 09:09:00,
2013-06-27 04:19:00,81.7,65.5,29.89,SE,126,2.7,3.6,58,0.00,,---,0.00,VWS V14.00,2013-06-27 09:19:00,
2013-06-27 04:29:00,81.5,65.8,29.89,SE,134,0.0,3.6,59,0.00,,---,0.00,VWS V14.00,2013-06-27 09:29:00,
2013-06-27 04:39:00,81.3,66.1,29.89,SE,135,3.6,5.4,60,0.00,,---,0.00,VWS V14.00,2013-06-27 09:39:00,
2013-06-27 04:49:00,81.1,65.9,29.89,South,176,0.0,4.9,60,0.00,,---,0.00,VWS V14.00,2013-06-27 09:49:00,
2013-06-27 04:59:00,81.0,66.3,29.92,WSW,242,0.0,4.9,61,0.00,,---,0.00,VWS V14.00,2013-06-27 09:59:00,
2013-06-27 05:09:00,80.8,66.1,29.92,SSE,162,0.0,4.5,61,0.00,,---,0.00,VWS V14.00,2013-06-27 10:09:00,
2013-06-27 05:19:00,80.4,66.2,29.92,WSW,241,0.0,5.4,62,0.00,,---,0.00,VWS V14.00,2013-06-27 10:19:00,
2013-06-27 05:29:00,80.2,66.1,29.92,South,182,0.0,5.8,62,0.00,,---,0.00,VWS V14.00,2013-06-27 10:29:00,
2013-06-27 05:39:00,80.1,66.3,29.92,WSW,254,0.0,5.8,63,0.00,,---,0.00,VWS V14.00,2013-06-27 10:39:00,
2013-06-27 05:49:00,79.9,66.2,29.92,SE,130,0.0,5.8,63,0.00,,---,0.00,VWS V14.00,2013-06-27 10:49:00,
2013-06-27 05:59:00,79.5,66.3,29.92,South,169,3.1,4.5,64,0.00,,---,0.00,VWS V14.00,2013-06-27 10:59:00,
2013-06-27 06:09:00,79.3,66.6,29.95,SE,136,0.0,3.6,65,0.00,,---,0.00,VWS V14.00,2013-06-27 11:09:00,
2013-06-27 06:19:00,79.2,66.8,29.95,SSE,153,0.0,4.0,66,0.00,,---,0.00,VWS V14.00,2013-06-27 11:19:00,
2013-06-27 06:29:00,79.0,66.7,29.95,SE,146,3.6,5.4,66,0.00,,---,0.00,VWS V14.00,2013-06-27 11:29:00,
2013-06-27 06:39:00,78.6,66.8,29.95,SE,143,0.0,4.0,67,0.00,,---,0.00,VWS V14.00,2013-06-27 11:39:00,
2013-06-27 06:49:00,78.6,67.2,29.95,South,170,0.0,3.1,68,0.00,,---,0.00,VWS V14.00,2013-06-27 11:49:00,
2013-06-27 06:59:00,78.4,67.0,29.95,SSE,155,0.0,3.1,68,0.00,,---,0.00,VWS V14.00,2013-06-27 11:59:00,
2013-06-27 07:09:00,78.3,67.3,29.98,SSE,151,0.0,3.6,69,0.00,,---,0.00,VWS V14.00,2013-06-27 12:09:00,
2013-06-27 07:19:00,78.3,67.7,29.98,South,187,0.0,4.5,70,0.00,,---,0.00,VWS V14.00,2013-06-27 12:19:00,
2013-06-27 07:29:00,78.3,68.1,29.98,SW,217,0.0,4.0,71,0.00,,---,0.00,VWS V14.00,2013-06-27 12:29:00,
2013-06-27 07:39:00,78.4,68.7,29.98,SE,134,0.0,5.8,72,0.00,,---,0.00,VWS V14.00,2013-06-27 12:39:00,
2013-06-27 07:49:00,78.8,69.4,29.98,SE,132,0.0,4.0,73,0.00,,---,0.00,VWS V14.00,2013-06-27 12:49:00,
2013-06-27 07:59:00,79.2,69.8,29.98,SE,134,0.0,4.0,73,0.00,,---,0.00,VWS V14.00,2013-06-27 12:59:00,
2013-06-27 08:09:00,79.5,70.5,30.01,SSW,210,0.0,4.9,74,0.00,,---,0.00,VWS V14.00,2013-06-27 13:09:00,
2013-06-27 08:19:00,79.9,70.5,30.01,SSE,166,0.0,3.1,73,0.00,,---,0.00,VWS V14.00,2013-06-27 13:19:00,
2013-06-27 08:29:00,80.6,71.6,30.01,WSW,241,0.0,3.1,74,0.00,,---,0.00,VWS V14.00,2013-06-27 13:29:00,
2013-06-27 08:39:00,81.1,72.1,30.01,WSW,241,0.0,3.1,74,0.00,,---,0.00,VWS V14.00,2013-06-27 13:39:00,
2013-06-27 08:49:00,81.5,72.0,30.01,South,179,0.0,3.6,73,0.00,,---,0.00,VWS V14.00,2013-06-27 13:49:00,
2013-06-27 08:59:00,82.0,72.1,30.01,South,186,0.0,4.0,72,0.00,,---,0.00,VWS V14.00,2013-06-27 13:59:00,
2013-06-27 09:09:00,82.6,72.7,30.01,South,176,0.0,4.0,72,0.00,,---,0.00,VWS V14.00,2013-06-27 14:09:00,
2013-06-27 09:19:00,83.1,72.8,30.01,SE,143,3.6,3.6,71,0.00,,---,0.00,VWS V14.00,2013-06-27 14:19:00,
2013-06-27 09:29:00,83.8,72.6,30.01,South,179,2.7,4.5,69,0.00,,---,0.00,VWS V14.00,2013-06-27 14:29:00,
2013-06-27 09:39:00,84.7,73.0,30.01,SE,135,2.7,4.9,68,0.00,,---,0.00,VWS V14.00,2013-06-27 14:39:00,
2013-06-27 09:49:00,85.5,73.3,30.01,SSE,167,0.0,4.9,67,0.00,,---,0.00,VWS V14.00,2013-06-27 14:49:00,
2013-06-27 09:59:00,85.6,72.5,29.98,SSW,196,0.0,4.5,65,0.00,,---,0.00,VWS V14.00,2013-06-27 14:59:00,
2013-06-27 10:09:00,86.4,73.2,29.98,SE,143,3.1,4.0,65,0.00,,---,0.00,VWS V14.00,2013-06-27 15:09:00,
2013-06-27 10:19:00,86.7,73.1,29.98,SE,139,0.0,5.4,64,0.00,,---,0.00,VWS V14.00,2013-06-27 15:19:00,
2013-06-27 10:29:00,87.3,73.1,29.98,South,178,0.0,5.8,63,0.00,,---,0.00,VWS V14.00,2013-06-27 15:29:00,
2013-06-27 10:39:00,87.8,73.2,29.98,South,171,2.7,4.0,62,0.00,,---,0.00,VWS V14.00,2013-06-27 15:39:00,
2013-06-27 10:49:00,88.2,72.5,29.98,SW,229,0.0,4.5,60,0.00,,---,0.00,VWS V14.00,2013-06-27 15:49:00,
2013-06-27 10:59:00,88.9,72.7,29.98,South,177,0.0,3.6,59,0.00,,---,0.00,VWS V14.00,2013-06-27 15:59:00,
2013-06-27 11:09:00,89.4,72.7,29.98,SSE,160,0.0,4.0,58,0.00,,---,0.00,VWS V14.00,2013-06-27 16:09:00,
2013-06-27 11:19:00,89.6,72.4,29.98,SW,222,0.0,4.9,57,0.00,,---,0.00,VWS V14.00,2013-06-27 16:19:00,
2013-06-27 11:29:00,90.7,72.8,29.98,SE,131,0.0,6.9,56,0.00,,---,0.00,VWS V14.00,2013-06-27 16:29:00,
2013-06-27 11:39:00,91.0,72.6,29.98,SE,135,0.0,3.6,55,0.00,,---,0.00,VWS V14.00,2013-06-27 16:39:00,
2013-06-27 11:49:00,91.4,71.9,29.98,SSE,151,2.7,5.4,53,0.00,,---,0.00,VWS V14.00,2013-06-27 16:49:00,
2013-06-27 11:59:00,91.8,71.7,29.98,WSW,247,0.0,4.0,52,0.00,,---,0.00,VWS V14.00,2013-06-27 16:59:00,
2013-06-27 12:09:00,92.5,71.7,29.98,SW,232,0.0,4.0,51,0.00,,---,0.00,VWS V14.00,2013-06-27 17:09:00,
2013-06-27 12:19:00,93.0,71.6,29.98,SW,232,4.0,5.8,50,0.00,,---,0.00,VWS V14.00,2013-06-27 17:19:00,
2013-06-27 12:29:00,93.2,71.8,29.98,SW,215,0.0,4.0,50,0.00,,---,0.00,VWS V14.00,2013-06-27 17:29:00,
2013-06-27 12:39:00,94.1,71.4,29.98,SW,222,0.0,2.7,48,0.00,,---,0.00,VWS V14.00,2013-06-27 17:39:00,
2013-06-27 12:49:00,94.8,72.1,29.98,SSE,152,0.0,4.0,48,0.00,,---,0.00,VWS V14.00,2013-06-27 17:49:00,
2013-06-27 12:59:00,95.0,71.0,29.95,South,187,0.0,5.4,46,0.00,,---,0.00,VWS V14.00,2013-06-27 17:59:00,
2013-06-27 13:09:00,95.2,70.5,29.95,SSW,208,0.0,4.0,45,0.00,,---,0.00,VWS V14.00,2013-06-27 18:09:00,
2013-06-27 13:19:00,95.5,70.2,29.95,SSE,151,0.0,4.0,44,0.00,,---,0.00,VWS V14.00,2013-06-27 18:19:00,
2013-06-27 13:29:00,96.4,70.3,29.95,SSE,151,0.0,3.6,43,0.00,,---,0.00,VWS V14.00,2013-06-27 18:29:00,
2013-06-27 13:39:00,97.0,70.1,29.95,South,184,0.0,4.0,42,0.00,,---,0.00,VWS V14.00,2013-06-27 18:39:00,
2013-06-27 13:49:00,97.2,69.6,29.95,South,179,0.0,3.1,41,0.00,,---,0.00,VWS V14.00,2013-06-27 18:49:00,
2013-06-27 13:59:00,97.5,69.2,29.95,South,186,0.0,4.0,40,0.00,,---,0.00,VWS V14.00,2013-06-27 18:59:00,
2013-06-27 14:09:00,97.9,68.7,29.95,South,186,0.0,3.1,39,0.00,,---,0.00,VWS V14.00,2013-06-27 19:09:00,
2013-06-27 14:19:00,98.1,68.1,29.95,South,177,2.7,5.4,38,0.00,,---,0.00,VWS V14.00,2013-06-27 19:19:00,
2013-06-27 14:29:00,98.4,67.7,29.92,SSE,160,3.6,4.0,37,0.00,,---,0.00,VWS V14.00,2013-06-27 19:29:00,
2013-06-27 14:39:00,98.8,68.0,29.92,South,177,0.0,4.0,37,0.00,,---,0.00,VWS V14.00,2013-06-27 19:39:00,
2013-06-27 14:49:00,98.4,67.7,29.92,South,177,0.0,3.6,37,0.00,,---,0.00,VWS V14.00,2013-06-27 19:49:00,
2013-06-27 14:59:00,98.4,66.9,29.92,SSW,199,0.0,3.6,36,0.00,,---,0.00,VWS V14.00,2013-06-27 19:59:00,
2013-06-27 15:09:00,99.0,67.4,29.92,SSW,200,0.0,3.1,36,0.00,,---,0.00,VWS V14.00,2013-06-27 20:09:00,
2013-06-27 15:19:00,99.3,67.7,29.92,SSE,151,0.0,4.5,36,0.00,,---,0.00,VWS V14.00,2013-06-27 20:19:00,
2013-06-27 15:29:00,99.7,67.2,29.92,SSE,151,0.0,6.7,35,0.00,,---,0.00,VWS V14.00,2013-06-27 20:29:00,
2013-06-27 15:39:00,100.2,67.7,29.92,SE,127,0.0,6.7,35,0.00,,---,0.00,VWS V14.00,2013-06-27 20:39:00,
2013-06-27 15:49:00,100.4,67.0,29.92,SE,126,3.6,4.0,34,0.00,,---,0.00,VWS V14.00,2013-06-27 20:49:00,
2013-06-27 15:59:00,100.2,65.9,29.92,SE,134,0.0,4.0,33,0.00,,---,0.00,VWS V14.00,2013-06-27 20:59:00,
2013-06-27 16:09:00,100.4,66.1,29.89,SE,134,3.6,3.6,33,0.00,,---,0.00,VWS V14.00,2013-06-27 21:09:00,
2013-06-27 16:19:00,100.0,64.0,29.89,SE,137,0.0,4.0,31,0.00,,---,0.00,VWS V14.00,2013-06-27 21:19:00,
2013-06-27 16:29:00,100.0,64.0,29.89,South,173,0.0,5.4,31,0.00,,---,0.00,VWS V14.00,2013-06-27 21:29:00,
2013-06-27 16:49:00,100.4,65.2,29.89,South,176,0.0,5.8,32,0.00,,---,0.00,VWS V14.00,2013-06-27 21:49:00,
2013-06-27 16:59:00,100.4,64.3,29.89,SE,130,0.0,6.3,31,0.00,,---,0.00,VWS V14.00,2013-06-27 21:59:00,
2013-06-27 17:09:00,99.9,63.8,29.89,SE,143,0.0,4.5,31,0.00,,---,0.00,VWS V14.00,2013-06-27 22:09:00,
2013-06-27 17:19:00,99.3,64.3,29.89,South,178,0.0,5.8,32,0.00,,---,0.00,VWS V14.00,2013-06-27 22:19:00,
2013-06-27 17:29:00,99.1,63.2,29.89,South,190,0.0,4.5,31,0.00,,---,0.00,VWS V14.00,2013-06-27 22:29:00,
2013-06-27 17:39:00,98.8,63.8,29.89,SSW,195,0.0,0.0,32,0.00,,---,0.00,VWS V14.00,2013-06-27 22:39:00,
2013-06-27 17:59:00,98.2,63.3,29.86,South,178,4.9,5.4,32,0.00,,---,0.00,VWS V14.00,2013-06-27 22:59:00,
2013-06-27 18:09:00,97.9,63.0,29.86,ESE,117,0.0,6.3,32,0.00,,---,0.00,VWS V14.00,2013-06-27 23:09:00,
2013-06-27 18:19:00,97.7,62.9,29.86,South,182,3.6,4.0,32,0.00,,---,0.00,VWS V14.00,2013-06-27 23:19:00,
2013-06-27 18:29:00,97.5,63.6,29.86,SE,136,2.7,4.5,33,0.00,,---,0.00,VWS V14.00,2013-06-27 23:29:00,
2013-06-27 18:39:00,97.3,62.6,29.86,ESE,116,0.0,6.3,32,0.00,,---,0.00,VWS V14.00,2013-06-27 23:39:00,
2013-06-27 18:49:00,97.2,62.4,29.86,SSE,151,0.0,4.0,32,0.00,,---,0.00,VWS V14.00,2013-06-27 23:49:00,
2013-06-27 18:59:00,96.8,61.2,29.86,South,185,2.7,4.5,31,0.00,,---,0.00,VWS V14.00,2013-06-27 23:59:00,
2013-06-27 19:09:00,96.4,61.8,29.86,South,179,0.0,3.6,32,0.00,,---,0.00,VWS V14.00,2013-06-28 00:09:00,
2013-06-27 19:29:00,96.3,61.6,29.86,South,171,0.0,4.0,32,0.00,,---,0.00,VWS V14.00,2013-06-28 00:29:00,
2013-06-27 19:39:00,96.1,61.5,29.86,SE,132,0.0,5.8,32,0.00,,---,0.00,VWS V14.00,2013-06-28 00:39:00,
2013-06-27 19:49:00,95.7,62.0,29.86,SE,137,0.0,0.0,33,0.00,,---,0.00,VWS V14.00,2013-06-28 00:49:00,
2013-06-27 20:19:00,94.5,61.8,29.86,SE,126,2.7,5.4,34,0.00,,---,0.00,VWS V14.00,2013-06-28 01:19:00,
2013-06-27 20:39:00,93.7,61.2,29.83,South,180,0.0,5.4,34,0.00,,---,0.00,VWS V14.00,2013-06-28 01:39:00,
2013-06-27 21:39:00,90.7,60.9,29.89,SSE,156,0.0,3.1,37,0.00,,---,0.00,VWS V14.00,2013-06-28 02:39:00,
2013-06-27 21:49:00,90.1,61.1,29.89,SSE,155,0.0,4.0,38,0.00,,---,0.00,VWS V14.00,2013-06-28 02:49:00,
2013-06-27 21:59:00,89.6,60.7,29.89,SSE,155,0.0,0.0,38,0.00,,---,0.00,VWS V14.00,2013-06-28 02:59:00,
2013-06-27 22:29:00,88.3,61.0,29.92,SSE,149,0.0,2.7,40,0.00,,---,0.00,VWS V14.00,2013-06-28 03:29:00,
2013-06-27 22:39:00,88.0,60.7,29.92,SSE,152,0.0,2.7,40,0.00,,---,0.00,VWS V14.00,2013-06-28 03:39:00,
2013-06-27 22:49:00,87.6,60.3,29.92,SSE,159,0.0,3.1,40,0.00,,---,0.00,VWS V14.00,2013-06-28 03:49:00,
2013-06-27 22:59:00,87.3,60.7,29.92,SSE,160,0.0,0.0,41,0.00,,---,0.00,VWS V14.00,2013-06-28 03:59:00,
2013-06-27 23:09:00,86.7,60.9,29.92,SSE,159,0.0,0.0,42,0.00,,---,0.00,VWS V14.00,2013-06-28 04:09:00,
2013-06-27 23:19:00,86.0,60.9,29.92,SSE,158,0.0,0.0,43,0.00,,---,0.00,VWS V14.00,2013-06-28 04:19:00,
2013-06-27 23:29:00,85.5,61.1,29.95,SSE,158,0.0,0.0,44,0.00,,---,0.00,VWS V14.00,2013-06-28 04:29:00,
2013-06-27 23:39:00,84.9,61.2,29.92,SSE,157,0.0,0.0,45,0.00,,---,0.00,VWS V14.00,2013-06-28 04:39:00,
2013-06-27 23:49:00,84.4,61.4,29.92,SSE,158,0.0,0.0,46,0.00,,---,0.00,VWS V14.00,2013-06-28 04:49:00,
2013-06-27 23:59:00,84.0,61.6,29.92,SSE,157,0.0,0.0,47,0.00,,---,0.00,VWS V14.00,2013-06-28 04:59:00,